2021 GM1
ephemeris date magn radius delta ra dec elong phase
Today20 Oct 202532.40.959 AU0.951 AU09h57m+11°13'59.0°62.8°
2021 GM1 - 2025-10-20
astro.vanbuitenen.nl


 
-1 year
-1 month
-1 day
Now
+1 day
+1 month
+1 year

The interactive orbit chart above shows the body's path through the solar system and its position at the given date. Green and blue lines are shown perpendicular to the ecliptic plane: Green if the path is above the ecliptic plane, blue if it is below. (Left-click and drag to rotate the view; Right-click and drag to move the view; Use scroll wheel to zoom in our out.)

The orbital elements of 2021 GM1 are:

            e (Eccentricity)                : 0.0254473
            a (Semimajor axis)              : 0.9780307
            i (Inclination)                 : 1.17836
            Ω (Longitude of ascending node) : 176.23594
            ω (Argument of perihelion)      : 226.16688
            M (Mean anomaly)                : 229.13897
            Epoch                           : 2025 May 05

            L (Longitude of perihelion)     : 222.39677
            B (Latitude of perihelion)      : -0.84999
            P (Orbital period in years)     : 0.97            
        

The light curve chart below shows the estimated development of the minor planet's magnitude.


The all-sky chart below shows the path of the minor planet over the same period as the light curve. The current position is marked yellow.





The following chart shows the path of the minor planet in the next few days. The field of view is optimized for (~10x50) binoculars and finderscopes.




Ephemerides:
Date       Time       RA (2000)    DEC (2000)    delta   radius  elong  phase   PA    magn
2025-10-20 00:00 UT   09 57 10.7   +11 13 13     0.951    0.959   59.0   62.8   289   32.4 
2025-10-20 11:20 UT   09 58 58.6   +11 03 35     0.951    0.959   59.0   62.8   289   32.4 
2025-10-21 00:00 UT   10 00 58.9   +10 52 45     0.952    0.960   59.0   62.8   289   32.4 
2025-10-22 00:00 UT   10 04 46.4   +10 32 07     0.953    0.960   59.0   62.7   290   32.4 
2025-10-23 00:00 UT   10 08 33.4   +10 11 20     0.954    0.960   59.0   62.6   290   32.4 
2025-10-24 00:00 UT   10 12 19.9   +09 50 23     0.955    0.961   59.0   62.6   290   32.4 
2025-10-25 00:00 UT   10 16 05.8   +09 29 17     0.956    0.961   59.0   62.5   290   32.4 
2025-10-26 00:00 UT   10 19 51.2   +09 08 02     0.956    0.961   59.0   62.5   290   32.4 
2025-10-27 00:00 UT   10 23 36.1   +08 46 39     0.957    0.962   59.0   62.4   291   32.4 
2025-10-28 00:00 UT   10 27 20.5   +08 25 09     0.958    0.962   59.0   62.3   291   32.4 


    Terminology:
            
    delta:  distance between minor planet and earth in AU
    radius: distance between minor planet and sun in AU
    magn:   magnitude (brightness) estimate    
    ra:     right ascension in hours (24h = 360deg)
    dec:    declination in degrees
    elong:  elongation in degrees (angle sun-earth-minor planet)    
    phase:  phase angle in degrees (angle sun-minor planet-earth)        
    AU:     Astronomical Unit (mean distance between earth and sun: 149597870.7 km
    

Orbital elements provided by the MPC (Minor Planet Center).
Calculations by a modified version of AAPlus, a C# implementation of the AA+ project by PJ Naughter from the algorithms presented in the book "Astronomical Algorithms" by Jean Meeus.
NGC2000 dso catalog and star labels from VizieR as provided by the Strasbourg astronomical Data Center.
Tycho2 catalog from the ESO archive.